Regional Weather Roundup
Issued by NWS Albany, NY

Home | Current Version | Previous Version | Text Only | Print | Product List | Glossary On
Versions: 1 2 3 4 5 6 7 8 9 10 11 12 13 14 15 16 17 18 19 20 21 22 23 24 25 26 27 28 29 30 31 32 33 34 35 36 37 38 39 40 41 42 43 44 45 46 47 48 49 50
000
ASUS41 KALY 292310
RWRALY

NEW YORK STATE HOURLY WEATHER ROUNDUP
NATIONAL WEATHER SERVICE ALBANY NY
700 PM EDT FRI MAY 29 2015

NOTE: "FAIR" INDICATES FEW OR NO CLOUDS BELOW 12,000 FEET WITH NO
SIGNIFICANT WEATHER AND/OR NO OBSTRUCTIONS TO VISIBILITY.

NYZ032-033-038>043-046>054-057>066-NYZ062>081-300000-
EAST


CITY           SKY/WX    TMP DP  RH WIND       PRES   REMARKS
ALBANY         CLOUDY    80  53  39 S8        30.18S
GLENS FALLS    PTSUNNY   78  55  44 S5        30.17F
POUGHKEEPSIE   PTSUNNY   81  59  47 S5        30.19S
MONTGOMERY     PTSUNNY   79  61  53 SE7       30.19S
WHITE PLAINS   PTSUNNY   73  57  57 SE8       30.23R
ISLIP          PTSUNNY   67  58  72 SE8       30.24R
NEW YORK CITY  PTSUNNY   73  56  54 S9        30.23R
CENTRAL PARK   PTSUNNY   72  56  57 VRB5      30.25S
$$

NYZ005>009-017-018-044>046-055-056-300000-
CENTRAL


CITY           SKY/WX    TMP DP  RH WIND       PRES   REMARKS
FULTON         CLOUDY    79  55  43 E6        30.12F
SYRACUSE       PTSUNNY   78  57  48 E7        30.11F
ROME           CLOUDY    78  55  44 E7        30.15F
ELMIRA         MOSUNNY   82  60  47 S7        30.13F
BINGHAMTON     MOSUNNY   76  55  48 S6        30.19F
MONTICELLO     PTSUNNY   75  55  50 S9        30.24S
$$

NYZ026>034-041>043-300000-
NORTH


CITY           SKY/WX    TMP DP  RH WIND       PRES   REMARKS
WATERTOWN      PTSUNNY   79  50  36 S6        30.12F
FORT DRUM      NOT AVBL
MASSENA        PTSUNNY   77  58  51 E6        30.12F
SARANAC LAKE   PTSUNNY   76  49  38 S8        30.17F
PLATTSBURGH    CLOUDY    71  55  56 SE3       30.13F
$$

NYZ001>004-010>016-019>021-300000-
WEST


CITY           SKY/WX    TMP DP  RH WIND       PRES   REMARKS
NIAGARA FALLS  PTSUNNY   82  60  47 S7        30.05F
BUFFALO        PTSUNNY   84  59  42 SW12      30.06F
DUNKIRK        PTSUNNY   80  64  58 NE3       30.06F
JAMESTOWN      CLOUDY    77  61  57 S8        30.13F
WELLSVILLE     PTSUNNY   77  58  51 S7        30.18F
ROCHESTER      PTSUNNY   83  57  41 SE8       30.08F
PENN YAN       PTSUNNY   82  59  45 S12       30.12F
$$

             KEY
       WCI = WIND CHILL INDEX
       VSB = VISIBILITY
       HX  = HEAT INDEX
$$


USA.gov is the U.S. government's official web portal to all federal, state and local government web resources and services.